TimeEDT,TemperatureF,Dew PointF,Humidity,Sea Level PressureIn,VisibilityMPH,Wind Direction,Wind SpeedMPH,Gust SpeedMPH,PrecipitationIn,Events,Conditions,WindDirDegrees,DateUTC
12:54 AM,57.9,57.9,100,30.06,7.0,Calm,Calm,-,N/A,,Overcast,0,2013-09-24 04:54:00
1:54 AM,60.1,59.0,96,30.06,10.0,Calm,Calm,-,N/A,,Overcast,0,2013-09-24 05:54:00
2:54 AM,61.0,59.0,93,30.06,10.0,Calm,Calm,-,N/A,,Overcast,0,2013-09-24 06:54:00
3:54 AM,62.1,59.0,90,30.06,10.0,Calm,Calm,-,N/A,,Overcast,0,2013-09-24 07:54:00
4:54 AM,61.0,59.0,93,30.05,10.0,Calm,Calm,-,N/A,,Overcast,0,2013-09-24 08:54:00
5:54 AM,60.1,57.9,93,30.06,9.0,Calm,Calm,-,N/A,,Overcast,0,2013-09-24 09:54:00
6:54 AM,59.0,57.0,93,30.08,8.0,Calm,Calm,-,N/A,,Mostly Cloudy,0,2013-09-24 10:54:00
7:54 AM,57.9,57.0,97,30.09,5.0,Calm,Calm,-,N/A,,Overcast,0,2013-09-24 11:54:00
8:54 AM,64.0,57.0,78,30.09,10.0,Calm,Calm,-,N/A,,Clear,0,2013-09-24 12:54:00
9:54 AM,66.9,57.0,70,30.08,10.0,Calm,Calm,-,N/A,,Clear,0,2013-09-24 13:54:00
10:54 AM,70.0,57.0,63,30.08,10.0,WSW,3.5,-,N/A,,Clear,240,2013-09-24 14:54:00
11:54 AM,72.0,57.0,59,30.06,10.0,Calm,Calm,-,N/A,,Clear,0,2013-09-24 15:54:00
12:54 PM,73.9,57.9,57,30.04,10.0,Variable,3.5,-,N/A,,Mostly Cloudy,0,2013-09-24 16:54:00
1:54 PM,75.9,59.0,56,30.02,10.0,Variable,3.5,-,N/A,,Mostly Cloudy,0,2013-09-24 17:54:00
2:54 PM,75.0,57.0,53,30.00,10.0,Calm,Calm,-,N/A,,Overcast,0,2013-09-24 18:54:00
3:54 PM,73.9,57.9,57,29.98,10.0,Calm,Calm,-,N/A,,Overcast,0,2013-09-24 19:54:00
4:54 PM,73.0,60.1,64,29.96,10.0,Calm,Calm,-,N/A,,Mostly Cloudy,0,2013-09-24 20:54:00
5:54 PM,73.9,60.1,62,29.95,10.0,Calm,Calm,-,N/A,,Clear,0,2013-09-24 21:54:00
6:54 PM,69.1,62.1,78,29.96,10.0,Calm,Calm,-,N/A,,Scattered Clouds,0,2013-09-24 22:54:00
7:54 PM,69.1,62.1,78,29.95,10.0,Calm,Calm,-,N/A,,Overcast,0,2013-09-24 23:54:00
8:54 PM,66.9,63.0,87,29.95,10.0,Calm,Calm,-,N/A,,Overcast,0,2013-09-25 00:54:00
9:54 PM,66.0,64.0,93,29.96,10.0,Calm,Calm,-,N/A,,Overcast,0,2013-09-25 01:54:00
10:54 PM,64.0,62.1,93,29.95,9.0,Calm,Calm,-,N/A,,Scattered Clouds,0,2013-09-25 02:54:00
11:54 PM,63.0,62.1,97,29.95,8.0,Calm,Calm,-,N/A,,Mostly Cloudy,0,2013-09-25 03:54:00